Home   Weather   Addis Ababa   Past weeks
Flag for Ethiopia

Past Weather in Addis Ababa, Ethiopia — Yesterday and Last 2 Weeks

Now
57 °F

Partly cloudy.


Feels Like: 57 °F
Forecast: 72 / 48 °F
Wind: 5 mph from Southeast

Location: Addis Ababa Airport

Current Time: Oct 20, 2019 at 6:53:02 am

Latest Report: Oct 20, 2019 at 6:00 am


Visibility: N/A

Pressure: 30.33 "Hg (22.92 "Hg at 2354m altitude)

Humidity: 82%

Dew Point: 52 °F

Location of Addis AbabaLocation

Past Weather in Addis Ababa — Graph

°F

Addis Ababa Temperature Yesterday

Maximum temperature yesterday: 68 °F (at 11:00 am)
Minimum temperature yesterday: 55 °F (at 3:00 am)
Average temperature yesterday: 60 °F

High & Low Weather Summary for the Past Weeks

 TemperatureHumidityPressure
High73 °F (Oct 8, 3:00 pm)94% (Oct 13, 3:00 am)30.36 "Hg (Oct 13, 3:00 am)
Low50 °F (Oct 15, 4:00 am)29% (Oct 15, 10:00 am)30.15 "Hg (Oct 12, 4:00 pm)
Average62 °F62%30.28 "Hg
* Reported Oct 5 7:00 am — Oct 20 5:00 am, Addis Ababa. Weather by CustomWeather, © 2019

Note: Actual official high and low records may vary slightly from our data, if they occured in-between our weather recording intervals... More about our weather records

Advertising

Addis Ababa Weather History for the Previous 24 Hours

Scroll right to see more
 ConditionsComfort  
Time TempWeatherWind HumidityBarometerVisibility
5:00 am
Sun, Oct 20
55 °FPassing clouds.6 mph94%30.30 "HgN/A
4:00 am55 °FPassing clouds.2 mph94%30.30 "HgN/A
3:00 am57 °FPassing clouds.6 mph88%30.30 "HgN/A
2:00 am55 °FPassing clouds.5 mph94%30.30 "HgN/A
1:00 am57 °FPassing clouds.5 mph88%30.30 "HgN/A
11:00 pm
Sat, Oct 19
59 °FPassing clouds.5 mph82%30.33 "HgN/A
10:00 pm59 °FPassing clouds.7 mph77%30.33 "HgN/A
9:00 pm59 °FPassing clouds.9 mph77%30.33 "HgN/A
8:00 pm59 °FPassing clouds.9 mph77%30.30 "HgN/A
7:00 pm61 °FPassing clouds.12 mph68%30.27 "HgN/A
6:00 pm64 °FBroken clouds.9 mph56%30.24 "HgN/A
3:00 pm68 °FMild.12 mph46%30.24 "HgN/A
11:00 am68 °FPartly sunny.23 mph49%30.30 "HgN/A
8:00 am61 °FScattered clouds.7 mph34%30.33 "HgN/A
7:00 am59 °FScattered clouds.5 mph68%30.33 "HgN/A
6:00 am55 °FPassing clouds.5 mph82%30.30 "HgN/A
Weather by CustomWeather, © 2019

See weather overview